sat.trackr.live / text

‹ back to catalog

TIANMU-1 05

NORAD 55975 · 2023-039C

PAYLOAD ACTIVE UNKNOWN

§ Identity

Operator
Country
PRC
Launch date
2023-03-22
Launch site
JSC
Launch vehicle
Mass (kg)
RCS (m²)

Purposes: earth_obs

External: N2YO · Heavens-Above · Gunter

§ Orbital elements

Epoch: 2026-09-20T05:17:31.417728Z

Period
92.92 min
Inclination
97.5249°
Eccentricity
0.0003687
Mean motion
15.49654685 rev/d
Perigee alt
415.2 km
Apogee alt
420.2 km
Semi-major
6,795.9 km
B*
2.2301e-4
RAAN
80.7048°
Arg perigee
117.3324°
Mean anomaly
242.8303°
Rev number
19,552

§ Raw data

TIANMU-1 051 55975U 23039C   26263.22050252  .00012255  00000+0  22301-3 0  99902 55975  97.5249  80.7048 0003687 117.3324 242.8303 15.49654685195528

JSON: /api/v1/satellites/55975 · /tle

For live sub-satellite position, see the globe view (requires WebGL).

§ Visibility from observer

Set your observer location to see the next 7 days of passes ≥ 10°. The values pass through the URL so the page stays shareable.

No JS? Fill the form by hand. The geolocation button needs JavaScript.